This demonstration page uses our WeatherBlox Daily Observations layout. Learn more.

Left ArrowRight Arrow

Hourly Observations for June 12, 2017

Temp ( °F °C ) Dew Point ( °F °C ) Humidity (%) Winds ( mph kmh ) Pressure ( in mb ) Visibility ( mi km ) Precip ( " mm )
12:54 am 00:54 Clear 80 26.7 68 20 67 67 S 16 26 29.72 1007 10 16 0.00 0.00
1:54 am 01:54 Clear 79 26.1 68 20 69 69 S 15 24 29.73 1007 10 16 0.00 0.00
2:54 am 02:54 Clear 78 25.6 67 19.4 69 69 S 16 26 29.74 1007 10 16 0.00 0.00
3:54 am 03:54 Clear 77 25 67 19.4 71 71 S 10 17 29.74 1007 10 16 0.00 0.00
4:54 am 04:54 Clear 75 23.9 67 19.4 76 76 S 13 20 29.75 1007 10 16 0.00 0.00
5:05 am 05:05 Clear with Nearby Thunderstorms 75 23.9 67 19.4 76 76 S 12 19 29.74 1007 10 16 0.00 0.00
5:30 am 05:30 Mostly Cloudy with Thunderstorms 75 23.9 67 19.4 76 76 S 12 19 29.74 1007 10 16 0.00 0.00
5:54 am 05:54 Cloudy with Strong Thunderstorms 72 22.2 68 20 87 87 SW 17 28 29.76 1008 5 8 0.04 1.02
6:06 am 06:06 Cloudy with Strong Thunderstorms 69 20.6 67 19.4 93 93 SW 23 37 29.80 1009 1 2 0.09 2.29
6:12 am 06:12 Cloudy with Strong Thunderstorms 68 20 67 19.4 96 96 WSW 28 44 29.80 1009 0 0 0.20 5.08
6:21 am 06:21 Cloudy with Strong Thunderstorms 67 19.4 65 18.3 93 93 WSW 26 43 29.77 1008 1 1 0.49 12.45
6:29 am 06:29 Cloudy with Strong Thunderstorms 67 19.4 66 18.9 97 97 WSW 18 30 29.80 1009 1 1 0.86 21.84
6:44 am 06:44 Mostly Cloudy with Strong Thunderstorms 69 20.6 68 20 96 96 S 7 11 29.80 1009 1 2 1.96 49.78
6:54 am 06:54 Cloudy with Strong Thunderstorms 70 21.1 68 20 93 93 SE 8 13 29.78 1008 3 4 2.16 54.86
6:59 am 06:59 Cloudy with Thunderstorms 70 21.1 69 20.6 97 97 S 16 26 29.77 1008 3 5 0.04 1.02
7:31 am 07:31 Cloudy with Strong Thunderstorms 70 21.1 69 20.6 97 97 SE 12 19 29.80 1009 2 3 0.26 6.60
7:44 am 07:44 Windy with Storms Likely 71 21.7 68 20 90 90 SSE 22 35 29.83 1010 4 6 0.58 14.73
7:54 am 07:54 Mostly Cloudy with Thunderstorms 70 21.1 68 20 93 93 SSE 9 15 29.80 1009 7 11 0.60 15.24
8:04 am 08:04 Cloudy with Strong Thunderstorms 71 21.7 69 20.6 94 94 S 14 22 29.77 1008 2 3 0.08 2.03
8:16 am 08:16 Cloudy with Strong Thunderstorms 71 21.7 69 20.6 94 94 S 21 33 29.83 1010 3 4 0.32 8.13
8:26 am 08:26 Cloudy with Strong Thunderstorms 70 21.1 68 20 93 93 S 35 56 29.80 1009 1 2 0.52 13.21
8:39 am 08:39 Cloudy with Strong Thunderstorms 70 21.1 68 20 93 93 S 16 26 29.83 1010 3 5 0.76 19.30
8:54 am 08:54 Cloudy with Thunderstorms 70 21.1 68 20 93 93 SSE 14 22 29.78 1009 5 8 0.88 22.35
9:13 am 09:13 Mostly Sunny 71 21.7 68 20 90 90 ESE 14 22 29.83 1010 10 16 0.00 0.03
9:33 am 09:33 Partly Cloudy with Nearby Thunderstorms 71 21.7 68 20 90 90 SE 6 9 29.85 1011 7 11 0.00 0.03
9:44 am 09:44 Mostly Cloudy with Thunderstorms 71 21.7 68 20 90 90 ESE 14 22 29.83 1010 8 13 0.01 0.25
9:54 am 09:54 Mostly Cloudy with Thunderstorms 71 21.7 68 20 90 90 ESE 9 15 29.83 1010 7 11 0.02 0.51
10:09 am 10:09 Partly Cloudy with Nearby Thunderstorms 71 21.7 68 20 90 90 SSE 12 19 29.83 1010 9 14 0.00 0.03
10:20 am 10:20 Sunny with Thunderstorms 72 22.2 68 20 87 87 SSE 10 17 29.77 1008 9 14 0.00 0.03
10:54 am 10:54 Partly Cloudy with Thunderstorms 71 21.7 68 20 90 90 S 14 22 29.81 1010 6 10 0.02 0.51
11:16 am 11:16 Partly Cloudy with Light Rain 71 21.7 68 20 90 90 SSE 14 22 29.77 1008 9 14 0.00 0.03
11:25 am 11:25 Partly Cloudy with Nearby Thunderstorms 72 22.2 69 20.6 91 91 S 10 17 29.77 1008 9 14 0.00 0.03
11:54 am 11:54 Sunny 74 23.3 68 20 82 82 S 20 31 29.77 1008 10 16 0.00 0.03
12:06 pm 12:06 Sunny 74 23.3 67 19.4 79 79 SSE 21 33 29.74 1007 10 16 0.00 0.00
12:54 pm 12:54 Sunny 77 25 69 20.6 77 77 S 16 26 29.74 1007 10 16 0.00 0.00
1:46 pm 13:46 Sunny 81 27.2 69 20.6 67 67 S 16 26 29.71 1006 10 16 0.00 0.00
1:54 pm 13:54 Sunny 81 27.2 69 20.6 67 67 SSW 9 15 29.73 1007 10 16 0.00 0.00
2:54 pm 14:54 Sunny 83 28.3 71 21.7 67 67 S 20 31 29.74 1007 10 16 0.00 0.00
3:54 pm 15:54 Sunny 87 30.6 72 22.2 61 61 S 20 31 29.73 1007 10 16 0.00 0.00
4:54 pm 16:54 Cloudy 87 30.6 72 22.2 61 61 SE 10 17 29.74 1007 10 16 0.00 0.00
5:29 pm 17:29 Cloudy 82 27.8 72 22.2 72 72 E 10 17 29.71 1006 10 16 0.00 0.00
5:54 pm 17:54 Cloudy 84 28.9 73 22.8 70 70 ENE 12 19 29.73 1007 10 16 0.00 0.00
6:54 pm 18:54 Mostly Sunny 88 31.1 74 23.3 63 63 SSE 15 24 29.71 1006 10 16 0.00 0.00
7:54 pm 19:54 Partly Cloudy 86 30 74 23.3 67 67 SE 12 19 29.71 1006 10 16 0.00 0.00
8:54 pm 20:54 Mostly Sunny 84 28.9 72 22.2 67 67 SSE 14 22 29.70 1006 10 16 0.00 0.00
9:54 pm 21:54 Clear 83 28.3 71 21.7 67 67 SSE 16 26 29.72 1007 10 16 0.00 0.00
10:54 pm 22:54 Clear 82 27.8 70 21.1 67 67 SSE 17 28 29.73 1007 10 16 0.00 0.00
11:54 pm 23:54 Clear 81 27.2 69 20.6 67 67 SSE 17 28 29.74 1007 10 16 0.00 0.00

Powered by AerisWeather